sat.trackr.live / text

‹ back to catalog

SVOM

NORAD 60089 · 2024-116B

PAYLOAD ACTIVE UNKNOWN

§ Identity

Operator
Country
PRC
Launch date
2024-06-22
Launch site
XICLF
Launch vehicle
Mass (kg)
RCS (m²)

External: N2YO · Heavens-Above · Gunter

§ Orbital elements

Epoch: 2026-05-25T00:25:56.216928Z

Period
97.07 min
Inclination
28.9960°
Eccentricity
0.0005132
Mean motion
14.83482510 rev/d
Perigee alt
614.8 km
Apogee alt
621.9 km
Semi-major
6,996.5 km
B*
1.2336e-4
RAAN
263.9212°
Arg perigee
158.8378°
Mean anomaly
201.2428°
Rev number
10,415

§ Raw data

SVOM1 60089U 24116B   26145.01801177  .00001164  00000+0  12336-3 0  99992 60089  28.9960 263.9212 0005132 158.8378 201.2428 14.83482510104151

JSON: /api/v1/satellites/60089 · /tle

For live sub-satellite position, see the globe view (requires WebGL).

§ Visibility from observer

Set your observer location to see the next 7 days of passes ≥ 10°. The values pass through the URL so the page stays shareable.

No JS? Fill the form by hand. The geolocation button needs JavaScript.

§ Radio — SatNOGS DB

ModeDescriptionDownlinkUplink
FM Mode S - S-Band Transmitter 2.207 GHz
FM Mode V - Transmitter 1 137.710 MHz
FM Mode V - Transmitter 2 137.720 MHz
FM Mode V - Transmitter 3 137.730 MHz
FM Mode V - Transmitter 4 137.740 MHz
FM Mode V - Transmitter 5 137.750 MHz
FM Mode V - Transmitter 6 137.760 MHz
FM Mode V - Transmitter 7 137.770 MHz
FM Mode V - Transmitter 8 137.780 MHz

9 transmitters · refreshed weekly from db.satnogs.org